User: anonymous   Login
Location: Brabourne
(51.1333°N, 1.0000°E)
Time: 01:21:28
(UTC+00:00)
Language:

SL-4 R/B - Orbit

View from above orbital plane
View from above orbital plane
View from above satellite
View from above satellite

Ground track
Ground track

The orbit data is extracted from the following two-line orbital elements,

1 39679U 14021B   21269.25043842  .00001840  00000-0  10460-3 0  9997
2 39679  51.6147 104.6631 0170065 120.7031 241.0820 15.07173298409254
Epoch (UTC): 26 September 2021 06:00:37
Eccentricity: 0.0170065
inclination: 51.6147°
perigee height: 427 km
apogee height: 662 km
right ascension of ascending node: 104.6631°
argument of perigee: 120.7031°
revolutions per day: 15.07173298
mean anomaly at epoch: 241.0820°
orbit number at epoch: 40925

The dashed part of the orbit path shows where the satellite is in the earth's shadow,  

DLR